Location: Atlantic Beach
(40.5890°N, 73.7290°W)
Time: 13:39:28
(UTC+00:00)

Meteor 2-10 Rocket - Pass Details

Date: 29 October 2020
Orbit: 734 x 885 km, 81.2° (Epoch: 01 December)

Event Time Altitude Azimuth Distance (km) Brightness Sun altitude
Rises 22:49:39 0° 174° (S) 3,311 6.8 -11.0°
Reaches altitude 10° 22:52:07 10° 170° (S) 2,360 6.0 -11.5°
Maximum altitude 22:57:15 52° 95° (E) 962 3.6 -12.5°
Drops below altitude 10° 23:02:13 10° 20° (NNE) 2,290 5.7 -13.4°
Sets 23:04:34 0° 15° (NNE) 3,203 6.5 -13.8°
